Time,TemperatureF,DewpointF,PressureIn,WindDirection,WindDirectionDegrees,WindSpeedMPH,WindSpeedGustMPH,Humidity,HourlyPrecipIn,Conditions,Clouds,dailyrainin,SolarRadiationWatts/m^2,SoftwareType,DateUTC
2013-03-31 00:00:00,41.4,41.2,29.84,WSW,250,0.0,0.0,99,0.00,,,0.00,0,WeatherHawk,2013-03-31 05:00:00,
2013-03-31 00:05:00,41.9,41.6,29.85,WNW,288,1.0,-999.0,99,0.00,,,0.00,1,WeatherHawk,2013-03-31 05:05:00,
2013-03-31 00:10:00,41.3,41.3,29.85,SW,231,1.0,0.0,100,0.00,,,0.00,0,WeatherHawk,2013-03-31 05:10:00,
2013-03-31 00:15:00,41.5,41.5,29.84,WSW,247,0.0,-999.0,100,0.00,,,0.00,1,WeatherHawk,2013-03-31 05:15:00,
2013-03-31 00:20:00,41.4,41.4,29.84,West,269,0.0,0.0,100,0.00,,,0.00,1,WeatherHawk,2013-03-31 05:20:00,
2013-03-31 00:25:00,41.1,41.1,29.85,WNW,300,0.0,0.0,100,0.00,,,0.00,0,WeatherHawk,2013-03-31 05:25:00,
2013-03-31 00:30:00,41.3,41.3,29.85,West,279,2.0,0.0,100,0.00,,,0.00,0,WeatherHawk,2013-03-31 05:30:00,
2013-03-31 00:35:00,41.3,41.3,29.85,WSW,250,4.0,0.0,100,0.00,,,0.00,0,WeatherHawk,2013-03-31 05:35:00,
2013-03-31 00:40:00,41.2,41.2,29.84,SW,234,2.0,0.0,100,0.00,,,0.00,0,WeatherHawk,2013-03-31 05:40:00,
2013-03-31 00:45:00,41.4,41.4,29.84,WNW,285,6.0,0.0,100,0.00,,,0.00,0,WeatherHawk,2013-03-31 05:45:00,
2013-03-31 00:50:00,41.1,41.1,29.83,West,270,0.0,0.0,100,0.00,,,0.00,0,WeatherHawk,2013-03-31 05:50:00,
2013-03-31 00:55:00,40.9,40.9,29.85,WSW,241,0.0,0.0,100,0.00,,,0.00,0,WeatherHawk,2013-03-31 05:55:00,
2013-03-31 01:00:00,40.9,40.9,29.84,West,280,2.0,0.0,100,0.00,,,0.00,0,WeatherHawk,2013-03-31 06:00:00,
2013-03-31 01:05:00,41.0,41.0,29.84,NW,316,7.0,0.0,100,0.00,,,0.00,0,WeatherHawk,2013-03-31 06:05:00,
2013-03-31 01:10:00,40.5,40.5,29.84,WSW,257,6.0,0.0,100,0.00,,,0.00,0,WeatherHawk,2013-03-31 06:10:00,
2013-03-31 01:15:00,40.2,40.2,29.84,NW,314,4.0,0.0,100,0.00,,,0.00,0,WeatherHawk,2013-03-31 06:15:00,
2013-03-31 01:20:00,40.0,40.0,29.85,NW,323,7.0,0.0,100,0.00,,,0.00,0,WeatherHawk,2013-03-31 06:20:00,
2013-03-31 01:25:00,39.7,39.7,29.85,North,349,4.0,0.0,100,0.00,,,0.00,1,WeatherHawk,2013-03-31 06:25:00,
2013-03-31 01:30:00,39.7,39.7,29.83,WNW,286,5.0,0.0,100,0.00,,,0.00,1,WeatherHawk,2013-03-31 06:30:00,
2013-03-31 01:35:00,39.6,39.6,29.83,NW,324,5.0,0.0,100,0.00,,,0.00,0,WeatherHawk,2013-03-31 06:35:00,
2013-03-31 01:40:00,39.5,39.5,29.84,NW,317,3.0,0.0,100,0.00,,,0.00,0,WeatherHawk,2013-03-31 06:40:00,
2013-03-31 01:45:00,39.4,39.4,29.83,NW,311,6.0,0.0,100,0.00,,,0.00,0,WeatherHawk,2013-03-31 06:45:00,
2013-03-31 01:50:00,39.1,39.1,29.84,NNW,343,3.0,0.0,100,0.00,,,0.00,0,WeatherHawk,2013-03-31 06:50:00,
2013-03-31 01:55:00,39.2,39.2,29.83,NNW,337,6.0,0.0,100,0.00,,,0.00,0,WeatherHawk,2013-03-31 06:55:00,
2013-03-31 02:00:00,38.7,38.7,29.82,WNW,298,4.0,0.0,100,0.00,,,0.00,0,WeatherHawk,2013-03-31 07:00:00,
2013-03-31 02:05:00,38.5,38.5,29.83,SW,235,1.0,0.0,100,0.00,,,0.00,1,WeatherHawk,2013-03-31 07:05:00,
2013-03-31 02:10:00,38.4,37.9,29.83,NNW,328,2.0,0.0,98,0.00,,,0.00,0,WeatherHawk,2013-03-31 07:10:00,
2013-03-31 02:15:00,37.6,36.6,29.83,West,272,0.0,-999.0,96,0.00,,,0.00,0,WeatherHawk,2013-03-31 07:15:00,
2013-03-31 02:20:00,37.0,36.0,29.84,WSW,258,0.0,0.0,96,0.00,,,0.00,0,WeatherHawk,2013-03-31 07:20:00,
2013-03-31 02:25:00,37.5,36.7,29.83,WNW,282,0.0,-999.0,97,0.00,,,0.00,0,WeatherHawk,2013-03-31 07:25:00,
2013-03-31 02:30:00,37.6,36.8,29.83,WNW,303,1.0,0.0,97,0.00,,,0.00,1,WeatherHawk,2013-03-31 07:30:00,
2013-03-31 02:35:00,37.6,37.1,29.83,WNW,293,2.0,0.0,98,0.00,,,0.00,0,WeatherHawk,2013-03-31 07:35:00,
2013-03-31 02:40:00,37.5,37.0,29.82,West,278,4.0,0.0,98,0.00,,,0.00,0,WeatherHawk,2013-03-31 07:40:00,
2013-03-31 02:45:00,37.6,37.1,29.82,West,270,2.0,0.0,98,0.00,,,0.00,0,WeatherHawk,2013-03-31 07:45:00,
2013-03-31 02:50:00,37.2,36.7,29.82,NW,317,1.0,0.0,98,0.00,,,0.00,0,WeatherHawk,2013-03-31 07:50:00,
2013-03-31 02:55:00,37.1,36.3,29.82,NW,325,0.0,0.0,97,0.00,,,0.00,0,WeatherHawk,2013-03-31 07:55:00,
2013-03-31 03:00:00,37.4,36.6,29.82,West,273,0.0,0.0,97,0.00,,,0.00,0,WeatherHawk,2013-03-31 08:00:00,
2013-03-31 03:05:00,37.5,37.0,29.82,WSW,256,0.0,0.0,98,0.00,,,0.00,0,WeatherHawk,2013-03-31 08:05:00,
2013-03-31 03:10:00,37.5,36.8,29.82,West,272,0.0,0.0,97,0.00,,,0.00,0,WeatherHawk,2013-03-31 08:10:00,
2013-03-31 03:15:00,37.5,36.7,29.83,West,272,0.0,0.0,97,0.00,,,0.00,0,WeatherHawk,2013-03-31 08:15:00,
2013-03-31 03:20:00,37.3,36.6,29.81,WSW,243,0.0,0.0,97,0.00,,,0.00,0,WeatherHawk,2013-03-31 08:20:00,
2013-03-31 03:25:00,37.5,36.7,29.81,SSW,207,0.0,0.0,97,0.00,,,0.00,0,WeatherHawk,2013-03-31 08:25:00,
2013-03-31 03:30:00,37.6,37.1,29.81,West,275,0.0,-999.0,98,0.00,,,0.00,0,WeatherHawk,2013-03-31 08:30:00,
2013-03-31 03:35:00,37.5,37.0,29.81,SW,233,0.0,0.0,98,0.00,,,0.00,0,WeatherHawk,2013-03-31 08:35:00,
2013-03-31 03:40:00,37.6,37.1,29.82,WSW,254,1.0,0.0,98,0.00,,,0.00,0,WeatherHawk,2013-03-31 08:40:00,
2013-03-31 03:45:00,37.6,37.1,29.81,WNW,293,0.0,0.0,98,0.00,,,0.00,0,WeatherHawk,2013-03-31 08:45:00,
2013-03-31 03:50:00,37.9,37.4,29.81,West,264,3.0,-999.0,98,0.00,,,0.00,0,WeatherHawk,2013-03-31 08:50:00,
2013-03-31 03:55:00,38.0,37.5,29.81,WNW,287,4.0,0.0,98,0.00,,,0.00,0,WeatherHawk,2013-03-31 08:55:00,
2013-03-31 04:00:00,38.0,37.2,29.80,West,278,0.0,0.0,97,0.00,,,0.00,0,WeatherHawk,2013-03-31 09:00:00,
2013-03-31 04:05:00,38.1,37.6,29.81,West,259,2.0,0.0,98,0.00,,,0.00,1,WeatherHawk,2013-03-31 09:05:00,
2013-03-31 04:10:00,38.3,37.8,29.81,NW,307,1.0,0.0,98,0.00,,,0.00,0,WeatherHawk,2013-03-31 09:10:00,
2013-03-31 04:15:00,38.4,37.7,29.80,West,278,1.0,0.0,97,0.00,,,0.00,0,WeatherHawk,2013-03-31 09:15:00,
2013-03-31 04:20:00,38.6,37.8,29.81,NW,309,4.0,-999.0,97,0.00,,,0.00,1,WeatherHawk,2013-03-31 09:20:00,
2013-03-31 04:25:00,38.6,37.5,29.81,West,275,4.0,0.0,96,0.00,,,0.00,0,WeatherHawk,2013-03-31 09:25:00,
2013-03-31 04:30:00,38.4,37.1,29.81,West,269,1.0,-999.0,95,0.00,,,0.00,0,WeatherHawk,2013-03-31 09:30:00,
2013-03-31 04:35:00,38.2,36.9,29.81,West,272,1.0,0.0,95,0.00,,,0.00,0,WeatherHawk,2013-03-31 09:35:00,
2013-03-31 04:40:00,38.4,37.1,29.80,WSW,244,2.0,0.0,95,0.00,,,0.00,0,WeatherHawk,2013-03-31 09:40:00,
2013-03-31 04:45:00,38.6,37.3,29.80,WSW,257,5.0,0.0,95,0.00,,,0.00,0,WeatherHawk,2013-03-31 09:45:00,
2013-03-31 04:50:00,38.6,37.3,29.81,West,267,2.0,0.0,95,0.00,,,0.00,0,WeatherHawk,2013-03-31 09:50:00,
2013-03-31 04:55:00,38.6,37.3,29.80,SW,215,4.0,0.0,95,0.00,,,0.00,0,WeatherHawk,2013-03-31 09:55:00,
2013-03-31 05:00:00,38.7,37.1,29.80,NNW,332,2.0,0.0,94,0.00,,,0.00,0,WeatherHawk,2013-03-31 10:00:00,
2013-03-31 05:05:00,38.5,37.2,29.81,SW,230,2.0,-999.0,95,0.00,,,0.00,1,WeatherHawk,2013-03-31 10:05:00,
2013-03-31 05:10:00,38.5,37.2,29.80,NNW,337,1.0,0.0,95,0.00,,,0.00,0,WeatherHawk,2013-03-31 10:10:00,
2013-03-31 05:15:00,38.7,37.3,29.80,WSW,252,0.0,-999.0,95,0.00,,,0.00,0,WeatherHawk,2013-03-31 10:15:00,
2013-03-31 05:20:00,38.7,37.4,29.79,SW,236,3.0,0.0,95,0.00,,,0.00,1,WeatherHawk,2013-03-31 10:20:00,
2013-03-31 05:25:00,38.8,37.4,29.80,WNW,283,2.0,-999.0,95,0.00,,,0.00,0,WeatherHawk,2013-03-31 10:25:00,
2013-03-31 05:30:00,38.3,37.0,29.80,North,350,2.0,0.0,95,0.00,,,0.00,0,WeatherHawk,2013-03-31 10:30:00,
2013-03-31 05:35:00,38.3,37.0,29.80,SW,230,0.0,0.0,95,0.00,,,0.00,0,WeatherHawk,2013-03-31 10:35:00,
2013-03-31 05:40:00,38.4,37.4,29.80,WSW,238,2.0,0.0,96,0.00,,,0.00,1,WeatherHawk,2013-03-31 10:40:00,
2013-03-31 05:45:00,38.4,37.3,29.80,WNW,301,3.0,0.0,96,0.00,,,0.00,0,WeatherHawk,2013-03-31 10:45:00,
2013-03-31 05:50:00,38.4,37.3,29.79,West,275,3.0,0.0,96,0.00,,,0.00,0,WeatherHawk,2013-03-31 10:50:00,
2013-03-31 05:55:00,38.3,37.2,29.79,SW,216,2.0,0.0,96,0.00,,,0.00,0,WeatherHawk,2013-03-31 10:55:00,
2013-03-31 06:00:00,38.2,37.4,29.79,West,280,0.0,0.0,97,0.00,,,0.00,0,WeatherHawk,2013-03-31 11:00:00,
2013-03-31 06:05:00,38.4,37.9,29.79,NW,316,0.0,0.0,98,0.00,,,0.00,0,WeatherHawk,2013-03-31 11:05:00,
2013-03-31 06:10:00,38.4,37.8,29.79,NNW,345,5.0,0.0,98,0.00,,,0.00,0,WeatherHawk,2013-03-31 11:10:00,
2013-03-31 06:15:00,38.2,37.7,29.79,SW,230,2.0,-999.0,98,0.00,,,0.00,1,WeatherHawk,2013-03-31 11:15:00,
2013-03-31 06:20:00,38.2,37.7,29.80,SW,230,0.0,0.0,98,0.00,,,0.00,0,WeatherHawk,2013-03-31 11:20:00,
2013-03-31 06:25:00,38.3,38.0,29.80,WSW,243,3.0,0.0,99,0.00,,,0.00,0,WeatherHawk,2013-03-31 11:25:00,
2013-03-31 06:30:00,38.0,37.7,29.79,WSW,246,0.0,0.0,99,0.00,,,0.00,0,WeatherHawk,2013-03-31 11:30:00,
2013-03-31 06:35:00,38.0,38.0,29.78,SW,231,1.0,0.0,100,0.00,,,0.00,0,WeatherHawk,2013-03-31 11:35:00,
2013-03-31 06:40:00,38.1,38.1,29.79,WSW,246,4.0,0.0,100,0.00,,,0.00,1,WeatherHawk,2013-03-31 11:40:00,
2013-03-31 06:45:00,38.0,38.0,29.80,SW,220,4.0,0.0,100,0.00,,,0.00,1,WeatherHawk,2013-03-31 11:45:00,
2013-03-31 06:50:00,38.0,38.0,29.79,SSW,207,4.0,0.0,100,0.00,,,0.00,4,WeatherHawk,2013-03-31 11:50:00,
2013-03-31 06:55:00,37.9,37.9,29.79,WSW,237,2.0,0.0,100,0.00,,,0.00,3,WeatherHawk,2013-03-31 11:55:00,
2013-03-31 07:00:00,37.7,37.7,29.78,SW,229,1.0,0.0,100,0.00,,,0.00,8,WeatherHawk,2013-03-31 12:00:00,
2013-03-31 07:05:00,37.7,37.7,29.79,SW,228,2.0,0.0,100,0.00,,,0.00,10,WeatherHawk,2013-03-31 12:05:00,
2013-03-31 07:10:00,37.8,37.8,29.79,SW,233,5.0,0.0,100,0.00,,,0.00,13,WeatherHawk,2013-03-31 12:10:00,
2013-03-31 07:15:00,37.8,37.8,29.78,WSW,252,3.0,0.0,100,0.00,,,0.00,14,WeatherHawk,2013-03-31 12:15:00,
2013-03-31 07:20:00,37.7,37.7,29.78,WNW,285,0.0,0.0,100,0.00,,,0.00,16,WeatherHawk,2013-03-31 12:20:00,
2013-03-31 07:25:00,37.5,37.3,29.78,WSW,247,1.0,0.0,99,0.00,,,0.00,25,WeatherHawk,2013-03-31 12:25:00,
2013-03-31 07:30:00,37.8,37.8,29.78,West,273,3.0,-999.0,100,0.00,,,0.00,28,WeatherHawk,2013-03-31 12:30:00,
2013-03-31 07:35:00,37.9,37.6,29.79,SW,222,1.0,-999.0,99,0.00,,,0.00,60,WeatherHawk,2013-03-31 12:35:00,
2013-03-31 07:40:00,37.9,37.7,29.79,WNW,289,5.0,-999.0,99,0.00,,,0.00,38,WeatherHawk,2013-03-31 12:40:00,
2013-03-31 07:45:00,38.0,37.5,29.78,WSW,247,0.0,0.0,98,0.00,,,0.00,51,WeatherHawk,2013-03-31 12:45:00,
2013-03-31 07:50:00,38.0,37.5,29.78,SW,232,0.0,0.0,98,0.00,,,0.00,77,WeatherHawk,2013-03-31 12:50:00,
2013-03-31 07:55:00,38.2,37.4,29.78,WSW,250,1.0,0.0,97,0.00,,,0.00,65,WeatherHawk,2013-03-31 12:55:00,
2013-03-31 08:00:00,38.1,37.0,29.78,SSW,209,2.0,0.0,96,0.00,,,0.00,63,WeatherHawk,2013-03-31 13:00:00,
2013-03-31 08:05:00,38.1,36.8,29.78,WSW,247,6.0,0.0,95,0.00,,,0.00,69,WeatherHawk,2013-03-31 13:05:00,
2013-03-31 08:10:00,38.1,36.8,29.78,West,269,1.0,0.0,95,0.00,,,0.00,88,WeatherHawk,2013-03-31 13:10:00,
2013-03-31 08:15:00,38.1,36.6,29.79,WSW,241,5.0,-999.0,94,0.00,,,0.00,90,WeatherHawk,2013-03-31 13:15:00,
2013-03-31 08:20:00,38.3,36.4,29.79,SW,231,2.0,0.0,93,0.00,,,0.00,92,WeatherHawk,2013-03-31 13:20:00,
2013-03-31 08:25:00,38.3,36.2,29.77,SW,233,3.0,0.0,92,0.00,,,0.00,115,WeatherHawk,2013-03-31 13:25:00,
2013-03-31 08:30:00,38.2,35.8,29.77,WSW,248,6.0,0.0,91,0.00,,,0.00,148,WeatherHawk,2013-03-31 13:30:00,
2013-03-31 08:35:00,38.3,35.9,29.78,SW,235,4.0,0.0,91,0.00,,,0.00,128,WeatherHawk,2013-03-31 13:35:00,
2013-03-31 08:40:00,38.6,35.6,29.78,West,260,4.0,0.0,89,0.00,,,0.00,125,WeatherHawk,2013-03-31 13:40:00,
2013-03-31 08:45:00,38.9,36.2,29.78,WSW,239,2.0,0.0,90,0.00,,,0.00,171,WeatherHawk,2013-03-31 13:45:00,
2013-03-31 08:50:00,39.2,35.9,29.78,SW,228,3.0,0.0,88,0.00,,,0.00,182,WeatherHawk,2013-03-31 13:50:00,
2013-03-31 08:55:00,39.1,35.3,29.78,SW,233,2.0,0.0,86,0.00,,,0.00,154,WeatherHawk,2013-03-31 13:55:00,
2013-03-31 09:00:00,39.5,34.8,29.78,WSW,250,6.0,0.0,83,0.00,,,0.00,281,WeatherHawk,2013-03-31 14:00:00,
2013-03-31 09:05:00,41.1,36.4,29.77,SW,223,2.0,0.0,83,0.00,,,0.00,370,WeatherHawk,2013-03-31 14:05:00,
2013-03-31 09:10:00,41.1,34.7,29.76,West,260,1.0,0.0,78,0.00,,,0.00,313,WeatherHawk,2013-03-31 14:10:00,
2013-03-31 09:15:00,42.6,36.2,29.78,SW,233,0.0,-999.0,78,0.00,,,0.00,450,WeatherHawk,2013-03-31 14:15:00,
2013-03-31 09:20:00,43.1,35.1,29.77,West,261,2.0,0.0,73,0.00,,,0.00,410,WeatherHawk,2013-03-31 14:20:00,
2013-03-31 09:25:00,41.9,31.0,29.77,WSW,240,6.0,0.0,65,0.00,,,0.00,433,WeatherHawk,2013-03-31 14:25:00,
2013-03-31 09:30:00,42.8,31.5,29.77,South,184,1.0,-999.0,64,0.00,,,0.00,381,WeatherHawk,2013-03-31 14:30:00,
2013-03-31 09:35:00,43.7,32.4,29.77,SW,220,5.0,0.0,64,0.00,,,0.00,441,WeatherHawk,2013-03-31 14:35:00,
2013-03-31 09:40:00,42.9,30.4,29.76,NNW,347,5.0,0.0,61,0.00,,,0.00,452,WeatherHawk,2013-03-31 14:40:00,
2013-03-31 09:45:00,43.9,30.1,29.77,WSW,242,4.0,0.0,58,0.00,,,0.00,468,WeatherHawk,2013-03-31 14:45:00,
2013-03-31 09:50:00,43.7,29.9,29.77,NW,318,3.0,0.0,58,0.00,,,0.00,478,WeatherHawk,2013-03-31 14:50:00,
2013-03-31 09:56:00,43.1,28.5,29.77,NW,313,7.0,0.0,56,0.00,,,0.00,492,WeatherHawk,2013-03-31 14:56:00,
2013-03-31 10:01:00,44.2,29.0,29.78,SSE,147,7.0,0.0,55,0.00,,,0.00,418,WeatherHawk,2013-03-31 15:01:00,
2013-03-31 10:08:00,43.5,28.4,29.77,WSW,249,5.0,0.0,55,0.00,,,0.00,526,WeatherHawk,2013-03-31 15:08:00,
2013-03-31 10:13:00,43.8,27.8,29.77,NW,325,6.0,0.0,53,0.00,,,0.00,570,WeatherHawk,2013-03-31 15:13:00,
2013-03-31 10:19:00,44.2,28.6,29.77,WSW,258,3.0,0.0,54,0.00,,,0.00,564,WeatherHawk,2013-03-31 15:19:00,
2013-03-31 10:25:00,44.7,29.1,29.77,NW,304,5.0,0.0,54,0.00,,,0.00,575,WeatherHawk,2013-03-31 15:25:00,
2013-03-31 10:30:00,44.5,27.5,29.76,SSE,168,6.0,0.0,51,0.00,,,0.00,608,WeatherHawk,2013-03-31 15:30:00,
2013-03-31 10:35:00,44.0,26.6,29.77,WNW,284,5.0,0.0,50,0.00,,,0.00,601,WeatherHawk,2013-03-31 15:35:00,
2013-03-31 10:40:00,44.5,27.0,29.77,West,276,5.0,0.0,50,0.00,,,0.00,616,WeatherHawk,2013-03-31 15:40:00,
2013-03-31 10:45:00,43.9,26.5,29.77,WNW,300,4.0,0.0,50,0.00,,,0.00,673,WeatherHawk,2013-03-31 15:45:00,
2013-03-31 10:50:00,46.2,28.6,29.77,SSW,209,2.0,0.0,50,0.00,,,0.00,643,WeatherHawk,2013-03-31 15:50:00,
2013-03-31 10:55:00,45.3,28.8,29.77,West,274,3.0,0.0,52,0.00,,,0.00,650,WeatherHawk,2013-03-31 15:55:00,
2013-03-31 11:00:00,44.8,26.8,29.76,SSW,201,2.0,0.0,49,0.00,,,0.00,654,WeatherHawk,2013-03-31 16:00:00,
2013-03-31 11:05:00,44.7,26.2,29.78,West,269,6.0,0.0,48,0.00,,,0.00,657,WeatherHawk,2013-03-31 16:05:00,
2013-03-31 11:10:00,44.6,24.6,29.78,West,275,7.0,0.0,45,0.00,,,0.00,667,WeatherHawk,2013-03-31 16:10:00,
2013-03-31 11:15:00,44.4,24.4,29.77,WSW,243,6.0,0.0,45,0.00,,,0.00,687,WeatherHawk,2013-03-31 16:15:00,
2013-03-31 11:20:00,44.7,25.7,29.78,NNW,335,6.0,0.0,47,0.00,,,0.00,736,WeatherHawk,2013-03-31 16:20:00,
2013-03-31 11:25:00,47.0,27.3,29.76,WSW,257,2.0,0.0,46,0.00,,,0.00,663,WeatherHawk,2013-03-31 16:25:00,
2013-03-31 11:30:00,44.8,22.0,29.77,West,277,6.0,0.0,40,0.00,,,0.00,645,WeatherHawk,2013-03-31 16:30:00,
2013-03-31 11:35:00,45.4,23.7,29.77,WSW,239,6.0,0.0,42,0.00,,,0.00,633,WeatherHawk,2013-03-31 16:35:00,
2013-03-31 11:40:00,44.6,22.4,29.77,SW,217,5.0,0.0,41,0.00,,,0.00,539,WeatherHawk,2013-03-31 16:40:00,
2013-03-31 11:45:00,44.0,21.3,29.78,West,272,6.0,0.0,40,0.00,,,0.00,608,WeatherHawk,2013-03-31 16:45:00,
2013-03-31 11:50:00,45.8,23.5,29.76,West,269,5.0,0.0,41,0.00,,,0.00,731,WeatherHawk,2013-03-31 16:50:00,
2013-03-31 11:55:00,45.9,24.6,29.77,West,278,4.0,0.0,43,0.00,,,0.00,721,WeatherHawk,2013-03-31 16:55:00,
2013-03-31 12:00:00,46.2,23.2,29.77,WNW,296,5.0,-999.0,40,0.00,,,0.00,786,WeatherHawk,2013-03-31 17:00:00,
2013-03-31 12:05:00,45.2,21.7,29.77,WNW,285,9.0,0.0,39,0.00,,,0.00,654,WeatherHawk,2013-03-31 17:05:00,
2013-03-31 12:10:00,45.7,22.1,29.77,WSW,249,6.0,0.0,39,0.00,,,0.00,673,WeatherHawk,2013-03-31 17:10:00,
2013-03-31 12:15:00,45.3,23.0,29.76,WSW,254,6.0,0.0,41,0.00,,,0.00,679,WeatherHawk,2013-03-31 17:15:00,
2013-03-31 12:20:00,45.1,24.5,29.76,West,266,5.0,-999.0,44,0.00,,,0.00,361,WeatherHawk,2013-03-31 17:20:00,
2013-03-31 12:25:00,45.0,25.0,29.77,NNE,13,5.0,0.0,45,0.00,,,0.00,549,WeatherHawk,2013-03-31 17:25:00,
2013-03-31 12:30:00,47.8,29.5,29.76,SW,225,3.0,0.0,49,0.00,,,0.00,809,WeatherHawk,2013-03-31 17:30:00,
2013-03-31 12:35:00,45.4,25.3,29.77,WSW,242,5.0,0.0,45,0.00,,,0.00,539,WeatherHawk,2013-03-31 17:35:00,
2013-03-31 12:40:00,45.7,24.5,29.76,WSW,244,6.0,0.0,43,0.00,,,0.00,714,WeatherHawk,2013-03-31 17:40:00,
2013-03-31 12:45:00,44.8,24.3,29.76,SSW,203,8.0,0.0,44,0.00,,,0.00,761,WeatherHawk,2013-03-31 17:45:00,
2013-03-31 12:50:00,44.9,23.7,29.76,SW,226,7.0,0.0,43,0.00,,,0.00,715,WeatherHawk,2013-03-31 17:50:00,
2013-03-31 12:55:00,44.4,24.9,29.77,WSW,250,2.0,0.0,46,0.00,,,0.00,525,WeatherHawk,2013-03-31 17:55:00,
2013-03-31 13:00:00,43.8,24.4,29.76,SW,225,7.0,0.0,46,0.00,,,0.00,731,WeatherHawk,2013-03-31 18:00:00,
2013-03-31 13:05:00,43.2,24.4,29.76,SW,221,5.0,0.0,47,0.00,,,0.00,544,WeatherHawk,2013-03-31 18:05:00,
2013-03-31 13:10:00,43.2,25.8,29.76,SW,227,6.0,0.0,50,0.00,,,0.00,423,WeatherHawk,2013-03-31 18:10:00,
2013-03-31 13:15:00,42.2,25.8,29.77,WSW,240,7.0,0.0,52,0.00,,,0.00,393,WeatherHawk,2013-03-31 18:15:00,
2013-03-31 13:20:00,41.9,26.5,29.77,West,270,7.0,-999.0,54,0.00,,,0.00,673,WeatherHawk,2013-03-31 18:20:00,
2013-03-31 13:25:00,42.4,26.5,29.78,West,275,6.0,0.0,53,0.00,,,0.00,678,WeatherHawk,2013-03-31 18:25:00,
2013-03-31 13:30:00,40.1,24.3,29.78,West,279,12.0,0.0,53,0.00,,,0.00,503,WeatherHawk,2013-03-31 18:30:00,
2013-03-31 13:36:00,40.2,25.4,29.78,SW,232,10.0,0.0,55,0.00,,,0.00,396,WeatherHawk,2013-03-31 18:36:00,
2013-03-31 13:42:00,39.5,26.4,29.78,WSW,258,8.0,0.0,59,0.00,,,0.00,240,WeatherHawk,2013-03-31 18:42:00,
2013-03-31 13:48:00,38.6,25.9,29.79,West,261,9.0,0.0,60,0.00,,,0.00,186,WeatherHawk,2013-03-31 18:48:00,
2013-03-31 13:54:00,39.0,27.5,29.79,West,272,5.0,0.0,63,0.00,,,0.00,275,WeatherHawk,2013-03-31 18:54:00,
2013-03-31 14:00:00,40.1,28.6,29.79,NW,318,7.0,0.0,63,0.00,,,0.00,405,WeatherHawk,2013-03-31 19:00:00,
2013-03-31 14:05:00,39.1,26.8,29.80,West,274,9.0,0.0,61,0.00,,,0.00,264,WeatherHawk,2013-03-31 19:05:00,
2013-03-31 14:10:00,39.3,27.4,29.80,NNW,338,6.0,-999.0,62,0.00,,,0.00,137,WeatherHawk,2013-03-31 19:10:00,
2013-03-31 14:15:00,38.7,27.6,29.79,SW,230,11.0,0.0,64,0.00,,,0.00,228,WeatherHawk,2013-03-31 19:15:00,
2013-03-31 14:20:00,38.3,27.6,29.79,WNW,287,9.0,0.0,65,0.00,,,0.00,174,WeatherHawk,2013-03-31 19:20:00,
2013-03-31 14:25:00,38.0,27.7,29.79,WSW,245,8.0,0.0,66,0.00,,,0.00,108,WeatherHawk,2013-03-31 19:25:00,
2013-03-31 14:30:00,38.3,28.4,29.80,WNW,291,4.0,0.0,67,0.00,,,0.00,104,WeatherHawk,2013-03-31 19:30:00,
2013-03-31 14:35:00,37.6,26.9,29.79,WNW,299,10.0,-999.0,65,0.00,,,0.00,92,WeatherHawk,2013-03-31 19:35:00,
2013-03-31 14:40:00,38.0,26.9,29.80,WNW,288,9.0,0.0,64,0.00,,,0.00,176,WeatherHawk,2013-03-31 19:40:00,
2013-03-31 14:45:00,38.4,26.5,29.80,SW,216,8.0,0.0,62,0.00,,,0.00,145,WeatherHawk,2013-03-31 19:45:00,
2013-03-31 14:51:00,38.5,25.8,29.80,WNW,296,6.0,0.0,60,0.00,,,0.00,124,WeatherHawk,2013-03-31 19:51:00,
2013-03-31 14:57:00,38.2,24.7,29.80,West,275,9.0,0.0,58,0.00,,,0.00,152,WeatherHawk,2013-03-31 19:57:00,
2013-03-31 15:03:00,38.3,24.4,29.81,WSW,249,8.0,0.0,57,0.00,,,0.00,132,WeatherHawk,2013-03-31 20:03:00,
2013-03-31 15:08:00,38.1,24.6,29.81,WNW,299,9.0,0.0,58,0.00,,,0.00,117,WeatherHawk,2013-03-31 20:08:00,
2013-03-31 15:13:00,38.2,25.1,29.80,NW,316,5.0,0.0,59,0.00,,,0.00,120,WeatherHawk,2013-03-31 20:13:00,
2013-03-31 15:18:00,38.7,26.4,29.79,WNW,295,2.0,0.0,61,0.00,,,0.00,181,WeatherHawk,2013-03-31 20:18:00,
2013-03-31 15:24:00,39.7,26.6,29.79,WNW,293,2.0,0.0,59,0.00,,,0.00,343,WeatherHawk,2013-03-31 20:24:00,
2013-03-31 15:29:00,41.1,26.1,29.80,WSW,255,3.0,0.0,55,0.00,,,0.00,379,WeatherHawk,2013-03-31 20:29:00,
2013-03-31 15:35:00,40.4,24.2,29.79,WNW,286,6.0,0.0,52,0.00,,,0.00,307,WeatherHawk,2013-03-31 20:35:00,
2013-03-31 15:40:00,39.3,23.2,29.79,NNW,335,6.0,0.0,52,0.00,,,0.00,220,WeatherHawk,2013-03-31 20:40:00,
2013-03-31 15:47:00,39.1,22.5,29.79,WSW,252,7.0,0.0,51,0.00,,,0.00,217,WeatherHawk,2013-03-31 20:47:00,
2013-03-31 15:53:00,39.2,22.6,29.79,NW,321,11.0,0.0,51,0.00,,,0.00,171,WeatherHawk,2013-03-31 20:53:00,
2013-03-31 15:59:00,39.7,23.6,29.79,WNW,283,5.0,0.0,52,0.00,,,0.00,198,WeatherHawk,2013-03-31 20:59:00,
2013-03-31 16:04:00,39.9,22.8,29.80,NW,312,5.0,0.0,50,0.00,,,0.00,199,WeatherHawk,2013-03-31 21:04:00,
2013-03-31 16:10:00,39.6,22.5,29.78,NW,307,8.0,0.0,50,0.00,,,0.00,216,WeatherHawk,2013-03-31 21:10:00,
2013-03-31 16:15:00,39.6,22.5,29.79,West,281,6.0,0.0,50,0.00,,,0.00,215,WeatherHawk,2013-03-31 21:15:00,
2013-03-31 16:20:00,40.0,23.4,29.79,West,264,4.0,0.0,51,0.00,,,0.00,167,WeatherHawk,2013-03-31 21:20:00,
2013-03-31 16:25:00,39.4,22.8,29.80,NW,318,8.0,0.0,51,0.00,,,0.00,127,WeatherHawk,2013-03-31 21:25:00,
2013-03-31 16:30:00,40.0,24.3,29.80,WNW,301,7.0,0.0,53,0.00,,,0.00,333,WeatherHawk,2013-03-31 21:30:00,
2013-03-31 16:35:00,40.4,24.2,29.80,WNW,283,11.0,0.0,52,0.00,,,0.00,558,WeatherHawk,2013-03-31 21:35:00,
2013-03-31 16:40:00,40.2,22.1,29.80,West,261,10.0,0.0,48,0.00,,,0.00,373,WeatherHawk,2013-03-31 21:40:00,
2013-03-31 16:45:00,39.7,22.1,29.81,SSW,206,9.0,0.0,49,0.00,,,0.00,421,WeatherHawk,2013-03-31 21:45:00,
2013-03-31 16:50:00,39.9,22.3,29.81,West,280,9.0,0.0,49,0.00,,,0.00,403,WeatherHawk,2013-03-31 21:50:00,
2013-03-31 16:55:00,40.8,23.1,29.81,SW,217,8.0,-999.0,49,0.00,,,0.00,381,WeatherHawk,2013-03-31 21:55:00,
2013-03-31 17:00:00,40.2,22.1,29.79,West,269,8.0,0.0,48,0.00,,,0.00,325,WeatherHawk,2013-03-31 22:00:00,
2013-03-31 17:05:00,39.5,21.4,29.80,WSW,258,8.0,0.0,48,0.00,,,0.00,139,WeatherHawk,2013-03-31 22:05:00,
2013-03-31 17:10:00,39.3,21.3,29.80,West,263,7.0,0.0,48,0.00,,,0.00,120,WeatherHawk,2013-03-31 22:10:00,
2013-03-31 17:15:00,39.4,22.4,29.81,WNW,303,5.0,0.0,50,0.00,,,0.00,159,WeatherHawk,2013-03-31 22:15:00,
2013-03-31 17:20:00,39.0,21.9,29.81,WNW,296,7.0,0.0,50,0.00,,,0.00,100,WeatherHawk,2013-03-31 22:20:00,
2013-03-31 17:25:00,39.0,22.4,29.81,WSW,249,5.0,0.0,51,0.00,,,0.00,88,WeatherHawk,2013-03-31 22:25:00,
2013-03-31 17:30:00,38.7,21.7,29.81,WSW,244,3.0,0.0,50,0.00,,,0.00,80,WeatherHawk,2013-03-31 22:30:00,
2013-03-31 17:35:00,38.6,22.5,29.81,WSW,238,9.0,0.0,52,0.00,,,0.00,59,WeatherHawk,2013-03-31 22:35:00,
2013-03-31 17:40:00,38.7,22.6,29.81,SW,219,6.0,0.0,52,0.00,,,0.00,69,WeatherHawk,2013-03-31 22:40:00,
2013-03-31 17:45:00,38.5,22.4,29.82,SW,235,7.0,0.0,52,0.00,,,0.00,56,WeatherHawk,2013-03-31 22:45:00,
2013-03-31 17:50:00,38.3,22.2,29.81,WNW,286,4.0,0.0,52,0.00,,,0.00,37,WeatherHawk,2013-03-31 22:50:00,
2013-03-31 17:55:00,38.3,22.7,29.82,NW,313,7.0,0.0,53,0.00,,,0.00,50,WeatherHawk,2013-03-31 22:55:00,
2013-03-31 18:00:00,38.3,22.7,29.82,West,266,8.0,0.0,53,0.00,,,0.00,27,WeatherHawk,2013-03-31 23:00:00,
2013-03-31 18:05:00,38.3,22.2,29.82,West,269,8.0,0.0,52,0.00,,,0.00,14,WeatherHawk,2013-03-31 23:05:00,
2013-03-31 18:10:00,37.8,22.7,29.82,West,262,11.0,0.0,54,0.00,,,0.00,8,WeatherHawk,2013-03-31 23:10:00,
2013-03-31 18:15:00,36.7,24.2,29.83,NNW,332,13.0,0.0,60,0.00,,,0.00,6,WeatherHawk,2013-03-31 23:15:00,
2013-03-31 18:20:00,35.2,26.4,29.84,North,349,8.0,0.0,70,0.00,,,0.00,4,WeatherHawk,2013-03-31 23:20:00,
2013-03-31 18:25:00,34.2,28.1,29.83,West,271,8.0,0.0,78,0.00,,,0.00,8,WeatherHawk,2013-03-31 23:25:00,
2013-03-31 18:30:00,35.0,27.9,29.83,NW,320,13.0,0.0,75,0.00,,,0.00,11,WeatherHawk,2013-03-31 23:30:00,
2013-03-31 18:35:00,35.0,27.9,29.84,North,351,8.0,0.0,75,0.00,,,0.00,23,WeatherHawk,2013-03-31 23:35:00,
2013-03-31 18:40:00,35.2,27.7,29.83,West,275,7.0,0.0,74,0.00,,,0.00,25,WeatherHawk,2013-03-31 23:40:00,
2013-03-31 18:45:00,35.3,28.1,29.84,NW,311,4.0,0.0,75,0.00,,,0.00,30,WeatherHawk,2013-03-31 23:45:00,
2013-03-31 18:50:00,35.5,27.4,29.84,West,261,4.0,0.0,72,0.00,,,0.00,56,WeatherHawk,2013-03-31 23:50:00,
2013-03-31 18:55:00,35.5,26.7,29.84,NNW,345,8.0,0.0,70,0.00,,,0.00,45,WeatherHawk,2013-03-31 23:55:00,
2013-03-31 19:00:00,35.4,25.6,29.83,West,262,6.0,0.0,67,0.00,,,0.00,25,WeatherHawk,2013-04-01 00:00:00,
2013-03-31 19:05:00,34.8,24.6,29.84,WSW,252,5.0,-999.0,66,0.00,,,0.00,17,WeatherHawk,2013-04-01 00:05:00,
2013-03-31 19:10:00,34.7,24.1,29.85,West,261,4.0,0.0,65,0.00,,,0.00,12,WeatherHawk,2013-04-01 00:10:00,
2013-03-31 19:15:00,34.5,24.4,29.85,West,269,5.0,0.0,66,0.00,,,0.00,8,WeatherHawk,2013-04-01 00:15:00,
2013-03-31 19:20:00,34.4,24.6,29.85,WSW,239,3.0,0.0,67,0.00,,,0.00,5,WeatherHawk,2013-04-01 00:20:00,
2013-03-31 19:25:00,34.1,24.7,29.84,WNW,282,3.0,0.0,68,0.00,,,0.00,2,WeatherHawk,2013-04-01 00:25:00,
2013-03-31 19:30:00,34.5,25.4,29.84,WSW,253,6.0,0.0,69,0.00,,,0.00,1,WeatherHawk,2013-04-01 00:30:00,
2013-03-31 19:35:00,34.3,25.2,29.85,WSW,256,6.0,0.0,69,0.00,,,0.00,0,WeatherHawk,2013-04-01 00:35:00,
2013-03-31 19:40:00,34.3,25.2,29.85,West,280,6.0,0.0,69,0.00,,,0.00,0,WeatherHawk,2013-04-01 00:40:00,
2013-03-31 19:45:00,34.1,25.0,29.85,WNW,287,4.0,0.0,69,0.00,,,0.00,0,WeatherHawk,2013-04-01 00:45:00,
2013-03-31 19:50:00,34.3,25.2,29.85,West,267,7.0,-999.0,69,0.00,,,0.00,0,WeatherHawk,2013-04-01 00:50:00,
2013-03-31 19:55:00,34.0,25.3,29.85,WNW,302,4.0,0.0,70,0.00,,,0.00,0,WeatherHawk,2013-04-01 00:55:00,
2013-03-31 20:00:00,34.1,25.0,29.86,WNW,285,4.0,0.0,69,0.00,,,0.00,1,WeatherHawk,2013-04-01 01:00:00,
2013-03-31 20:05:00,33.8,24.7,29.86,West,280,3.0,0.0,69,0.00,,,0.00,0,WeatherHawk,2013-04-01 01:05:00,
2013-03-31 20:10:00,34.4,24.9,29.87,WNW,287,4.0,0.0,68,0.00,,,0.00,0,WeatherHawk,2013-04-01 01:10:00,
2013-03-31 20:15:00,33.9,24.1,29.86,West,279,4.0,0.0,67,0.00,,,0.00,0,WeatherHawk,2013-04-01 01:15:00,
2013-03-31 20:20:00,34.2,24.1,29.86,WSW,252,6.0,0.0,66,0.00,,,0.00,0,WeatherHawk,2013-04-01 01:20:00,
2013-03-31 20:25:00,34.3,23.4,29.87,WSW,237,4.0,0.0,64,0.00,,,0.00,0,WeatherHawk,2013-04-01 01:25:00,
2013-03-31 20:30:00,34.0,23.1,29.87,NW,306,5.0,0.0,64,0.00,,,0.00,0,WeatherHawk,2013-04-01 01:30:00,
2013-03-31 20:35:00,34.2,22.2,29.87,West,260,7.0,0.0,61,0.00,,,0.00,0,WeatherHawk,2013-04-01 01:35:00,
2013-03-31 20:40:00,34.5,21.3,29.87,NW,325,7.0,0.0,58,0.00,,,0.00,0,WeatherHawk,2013-04-01 01:40:00,
2013-03-31 20:45:00,34.6,20.1,29.87,West,267,8.0,0.0,55,0.00,,,0.00,0,WeatherHawk,2013-04-01 01:45:00,
2013-03-31 20:50:00,34.5,18.7,29.88,NNW,336,6.0,0.0,52,0.00,,,0.00,0,WeatherHawk,2013-04-01 01:50:00,
2013-03-31 20:55:00,34.4,18.2,29.88,NW,310,8.0,0.0,51,0.00,,,0.00,0,WeatherHawk,2013-04-01 01:55:00,
2013-03-31 21:00:00,34.9,17.2,29.88,NW,322,10.0,0.0,48,0.00,,,0.00,0,WeatherHawk,2013-04-01 02:00:00,
2013-03-31 21:05:00,34.6,16.0,29.88,NNW,336,10.0,0.0,46,0.00,,,0.00,0,WeatherHawk,2013-04-01 02:05:00,
2013-03-31 21:10:00,34.7,15.0,29.88,WNW,293,11.0,0.0,44,0.00,,,0.00,0,WeatherHawk,2013-04-01 02:10:00,
2013-03-31 21:15:00,34.4,14.3,29.89,NNW,327,8.0,0.0,43,0.00,,,0.00,0,WeatherHawk,2013-04-01 02:15:00,
2013-03-31 21:20:00,34.4,13.2,29.89,NW,315,8.0,0.0,41,0.00,,,0.00,0,WeatherHawk,2013-04-01 02:20:00,
2013-03-31 21:25:00,34.5,13.8,29.89,NNW,327,11.0,0.0,42,0.00,,,0.00,0,WeatherHawk,2013-04-01 02:25:00,
2013-03-31 21:30:00,34.0,13.8,29.89,NW,314,6.0,0.0,43,0.00,,,0.00,0,WeatherHawk,2013-04-01 02:30:00,
2013-03-31 21:35:00,32.9,13.9,29.89,NNW,333,3.0,0.0,45,0.00,,,0.00,0,WeatherHawk,2013-04-01 02:35:00,
2013-03-31 21:40:00,33.4,14.4,29.89,NNW,328,5.0,0.0,45,0.00,,,0.00,0,WeatherHawk,2013-04-01 02:40:00,
2013-03-31 21:45:00,33.9,14.3,29.89,NW,316,11.0,-999.0,44,0.00,,,0.00,0,WeatherHawk,2013-04-01 02:45:00,
2013-03-31 21:50:00,33.4,13.4,29.89,NW,316,8.0,-999.0,43,0.00,,,0.00,0,WeatherHawk,2013-04-01 02:50:00,
2013-03-31 21:55:00,33.3,12.7,29.89,SW,224,9.0,0.0,42,0.00,,,0.00,0,WeatherHawk,2013-04-01 02:55:00,
2013-03-31 22:00:00,33.2,12.1,29.90,West,275,5.0,0.0,41,0.00,,,0.00,0,WeatherHawk,2013-04-01 03:00:00,
2013-03-31 22:05:00,32.9,11.8,29.90,NNW,334,7.0,0.0,41,0.00,,,0.00,0,WeatherHawk,2013-04-01 03:05:00,
2013-03-31 22:10:00,33.1,12.0,29.89,NW,313,7.0,0.0,41,0.00,,,0.00,0,WeatherHawk,2013-04-01 03:10:00,
2013-03-31 22:15:00,33.6,11.9,29.89,NNW,332,9.0,-999.0,40,0.00,,,0.00,0,WeatherHawk,2013-04-01 03:15:00,
2013-03-31 22:20:00,32.9,11.2,29.90,West,278,8.0,0.0,40,0.00,,,0.00,0,WeatherHawk,2013-04-01 03:20:00,
2013-03-31 22:25:00,32.4,10.8,29.90,NW,311,4.0,0.0,40,0.00,,,0.00,0,WeatherHawk,2013-04-01 03:25:00,
2013-03-31 22:30:00,32.6,11.0,29.90,NNW,331,6.0,0.0,40,0.00,,,0.00,0,WeatherHawk,2013-04-01 03:30:00,
2013-03-31 22:35:00,33.0,10.7,29.90,NNW,346,7.0,0.0,39,0.00,,,0.00,0,WeatherHawk,2013-04-01 03:35:00,
2013-03-31 22:40:00,32.6,10.4,29.90,NNW,329,7.0,-999.0,39,0.00,,,0.00,0,WeatherHawk,2013-04-01 03:40:00,
2013-03-31 22:45:00,32.7,10.5,29.90,NNW,335,7.0,-999.0,39,0.00,,,0.00,1,WeatherHawk,2013-04-01 03:45:00,
2013-03-31 22:50:00,32.8,11.2,29.90,NNW,340,10.0,0.0,40,0.00,,,0.00,0,WeatherHawk,2013-04-01 03:50:00,
2013-03-31 22:55:00,32.8,11.2,29.90,NW,325,11.0,0.0,40,0.00,,,0.00,0,WeatherHawk,2013-04-01 03:55:00,
2013-03-31 23:00:00,32.0,11.0,29.90,NNW,336,6.0,0.0,41,0.00,,,0.00,0,WeatherHawk,2013-04-01 04:00:00,
2013-03-31 23:02:00,32.1,11.1,29.90,NW,322,6.0,0.0,41,0.00,,,0.00,0,WeatherHawk,2013-04-01 04:02:00,
2013-03-31 23:07:00,32.0,11.5,29.90,NW,310,6.0,0.0,42,0.00,,,0.00,0,WeatherHawk,2013-04-01 04:07:00,
2013-03-31 23:08:00,31.9,10.9,29.90,NNW,327,4.0,0.0,41,0.00,,,0.00,1,WeatherHawk,2013-04-01 04:08:00,
2013-03-31 23:13:00,31.8,10.8,29.90,NW,313,7.0,0.0,41,0.00,,,0.00,0,WeatherHawk,2013-04-01 04:13:00,
2013-03-31 23:18:00,32.1,11.0,29.90,NW,313,8.0,0.0,41,0.00,,,0.00,0,WeatherHawk,2013-04-01 04:18:00,
2013-03-31 23:24:00,31.9,12.0,29.90,NNW,332,8.0,0.0,43,0.00,,,0.00,0,WeatherHawk,2013-04-01 04:24:00,
2013-03-31 23:29:00,31.7,12.8,29.90,NW,319,6.0,0.0,45,0.00,,,0.00,0,WeatherHawk,2013-04-01 04:29:00,
2013-03-31 23:35:00,31.8,13.4,29.90,NNW,342,9.0,0.0,46,0.00,,,0.00,0,WeatherHawk,2013-04-01 04:35:00,
2013-03-31 23:40:00,31.8,13.4,29.91,NW,319,8.0,0.0,46,0.00,,,0.00,0,WeatherHawk,2013-04-01 04:40:00,
2013-03-31 23:45:00,31.6,13.2,29.90,NNW,341,10.0,0.0,46,0.00,,,0.00,0,WeatherHawk,2013-04-01 04:45:00,
2013-03-31 23:51:00,31.0,13.2,29.91,NW,322,6.0,0.0,47,0.00,,,0.00,0,WeatherHawk,2013-04-01 04:51:00,
2013-03-31 23:56:00,31.2,12.9,29.91,WNW,290,7.0,0.0,46,0.00,,,0.00,0,WeatherHawk,2013-04-01 04:56:00,